Location: Unspecified
(33.3110°N, 0.0000°E)
Time: 11:59:22
(UTC+00:00)

Envisat - Visible Passes

Search period start: 21 May 2019 00:00
Search period end: 31 May 2019 00:00
Orbit: 764 x 766 km, 98.2° (Epoch: 21 May)

Date Brightness Start Highest point End Pass type
(mag) Time Alt. Az. Time Alt. Az. Time Alt. Az.
21 May 5.8 19:51:37 10° SW 19:54:21 15° W 19:57:05 10° WNW visible
24 May 5.6 19:39:29 10° SW 19:43:02 19° W 19:46:36 10° NW visible
27 May 5.3 19:27:38 10° SSW 19:31:44 25° W 19:35:51 10° NW visible
29 May 5.8 19:55:10 10° WSW 19:57:27 13° W 19:59:44 10° WNW visible
